Dauntless Aviation
Airports Europe Croatia
LDSP
SPU

Split Airport

Split, CROATIA

Airport Info
Suggest Updated Information for this Airport

Location

Latitude / Longitude: 43°32'20"N / 16°17'52"E
  43°32.334'N / 16°17.88'E
  43.5389 / 16.2980

Nearby radio navigation aids

DVN DRVENIK NDB. 48.4° 8.7nm from DVN to field.
SPL SPLIT VOR/DME. 351.2° 2.6nm from SPL to field.
TRI TROGIR NDB. 50.4° 4.2nm from TRI to field.

Runway Information

Runway 05 /23

Dimensions: 8366 x 148 ft.
Surface: ASP
 
Runway 05
Runway 23
Latitude: 43.532053 43.545181
Longitude: 16.285583 16.309194
Elevation: 70 ft. 70 ft.
Runway true heading: 53.2 233.2
 

Instrument Procedures

  Aerodrome Chart
  Aircraft Parking/Docking Chart

STARs (Standard Terminal Arrivals)

  STAR - Instrument (STAR) - Rwy 05
  STAR - Instrument (STAR) - Rwy 23

IAPs (Instrument Approach Procedures)

  ATC Surveillance Minimum Altitude Chart
  ILSy or LOCy Rwy 05
  ILSz or LOCz Rwy 05
  ILS Rwy 05
  NDB Rwy 05
  VOR-B Rwy 23
  Visual Approach Chart
  Visual Operation Chart
  Bird Concentrations
  Aerodrome Obstacle Chart - Type A - Rwy 05
  Aerodrome Obstacle Chart - Type A - Rwy 23
  Aerodrome Information (Textual)

Departure Procedures

  SID - Instrument (SID) - Rwy 05
  SID - Instrument (SID) - Rwy 23
Satellite photo at:
Airport distance calculator
From:
Weather Reports

METAR

LDSP

LDSP 260900Z 16004KT 100V210 CAVOK 22/11 Q1018 BECMG 23008KT
LDSB
22.8nm E
LDSB 260900Z 03007KT CAVOK 18/10 Q1019

TAF

LDSP
TAF LDSP 260525Z 2606/2706 33005KT CAVOK TX23/2613Z TN14/2704Z BECMG 2610/2612 23008KT BECMG 2614/2616 34007KT
LDSB
22.8nm E
TAF LDSB 260855Z 2609/2706 03007KT CAVOK TX20/2613Z TN15/2704Z BECMG 2610/2612 30008KT
Safelog

 

Dauntless Aviation

© 2007-2017 Dauntless Aviation, all rights reserved
Information provided via PilotNav comes from a variety of official and unofficial data sources. As errors are possible, do not use PilotNav for primary flight planning purposes. Verify any information that you receive via PilotNav with current and canonical charts and other official documents. The material in this database is subject to database copyrights held by Dauntless Aviation and may not be copied without the express permission of Dauntless Aviation - licenses for use of part of all of this data are available for purchase; enquire via the Dauntless Aviation helpdesk. A number of mechanisms and markers exist in the database to protect against and identify infringement / copyright. Automated queries against this website are stictly prohibited, and all activity is logged and analyzed.